| time (UTC) | temp F | wind direction | speed knots | gust knots | rain 1hr in | rain 24hr in | rain mn in | humidity % | barometer mb |
| 20260504050507 | 41 | 256 | 0.0 | 0.0 | 0.00 | 0.00 | 0.00 | 76 | 1013.7 |
| 20260504050018 | 41 | 256 | 0.0 | 0.0 | 0.00 | 0.00 | 0.00 | 76 | 1013.7 |
| 20260504045507 | 41 | 256 | 0.0 | 0.0 | 0.00 | 0.00 | 0.00 | 76 | 1013.7 |
| 20260504045012 | 41 | 256 | 0.0 | 0.0 | 0.00 | 0.00 | 0.00 | 75 | 1013.8 |
| 20260504044508 | 41 | 256 | 0.0 | 0.0 | 0.00 | 0.00 | 0.00 | 75 | 1013.8 |
| 20260504044011 | 41 | 256 | 0.0 | 0.0 | 0.00 | 0.00 | 0.00 | 73 | 1013.8 |
| 20260504043504 | 41 | 256 | 0.0 | 0.0 | 0.00 | 0.00 | 0.00 | 74 | 1013.7 |
| 20260504043010 | 42 | 256 | 0.0 | 0.0 | 0.00 | 0.00 | 0.00 | 75 | 1013.7 |
| 20260504042504 | 42 | 256 | 0.0 | 0.0 | 0.00 | 0.00 | 0.00 | 74 | 1013.7 |
| 20260504042006 | 42 | 256 | 0.0 | 0.0 | 0.00 | 0.00 | 0.00 | 74 | 1013.7 |
| 20260504041511 | 42 | 256 | 0.0 | 0.0 | 0.00 | 0.00 | 0.00 | 73 | 1013.7 |
| 20260504041007 | 43 | 256 | 0.0 | 0.0 | 0.00 | 0.00 | 0.00 | 73 | 1013.7 |
| 20260504040508 | 43 | 256 | 0.0 | 0.9 | 0.00 | 0.00 | 0.00 | 73 | 1013.7 |
| 20260504040018 | 43 | 256 | 0.0 | 0.9 | 0.00 | 0.00 | 0.00 | 73 | 1013.6 |
| 20260504035509 | 43 | 255 | 0.0 | 0.9 | 0.00 | 0.00 | 0.00 | 72 | 1013.6 |
| 20260504035006 | 43 | 255 | 0.0 | 0.9 | 0.00 | 0.00 | 0.00 | 72 | 1013.6 |
| 20260504034526 | 44 | 255 | 0.0 | 0.0 | 0.00 | 0.00 | 0.00 | 70 | 1013.6 |
| 20260504034006 | 44 | 255 | 0.0 | 0.0 | 0.00 | 0.00 | 0.00 | 71 | 1013.6 |
| 20260504033510 | 45 | 255 | 0.0 | 0.0 | 0.00 | 0.00 | 0.00 | 64 | 1013.6 |
| 20260504033024 | 45 | 255 | 0.0 | 0.9 | 0.00 | 0.00 | 0.00 | 66 | 1013.6 |
| 20260504032504 | 46 | 255 | 0.0 | 0.9 | 0.00 | 0.00 | 0.00 | 67 | 1013.5 |
| 20260504032005 | 46 | 255 | 0.0 | 0.9 | 0.00 | 0.00 | 0.00 | 63 | 1013.4 |
| 20260504031508 | 46 | 255 | 0.0 | 0.9 | 0.00 | 0.00 | 0.00 | 64 | 1013.4 |
| 20260504031006 | 46 | 255 | 0.0 | 0.9 | 0.00 | 0.00 | 0.00 | 66 | 1013.4 |
| 20260504030508 | 46 | 255 | 0.9 | 0.9 | 0.00 | 0.00 | 0.00 | 67 | 1013.5 |
| 20260504030033 | 47 | 307 | 0.0 | 0.0 | 0.00 | 0.00 | 0.00 | 62 | 1013.4 |
| 20260504025512 | 47 | 307 | 0.0 | 0.0 | 0.00 | 0.00 | 0.00 | 60 | 1013.4 |
| 20260504025007 | 47 | 307 | 0.0 | 0.0 | 0.00 | 0.00 | 0.00 | 60 | 1013.4 |
| 20260504024517 | 47 | 307 | 0.0 | 0.0 | 0.00 | 0.00 | 0.00 | 60 | 1013.4 |
| 20260504024007 | 47 | 307 | 0.0 | 0.0 | 0.00 | 0.00 | 0.00 | 60 | 1013.4 |
| 20260504023509 | 48 | 307 | 0.0 | 0.0 | 0.00 | 0.00 | 0.00 | 59 | 1013.4 |
| 20260504023026 | 48 | 307 | 0.0 | 0.0 | 0.00 | 0.00 | 0.00 | 58 | 1013.4 |
| 20260504022510 | 48 | 307 | 0.0 | 0.0 | 0.00 | 0.00 | 0.00 | 57 | 1013.4 |
| 20260504022011 | 48 | 307 | 0.0 | 0.0 | 0.00 | 0.00 | 0.00 | 57 | 1013.4 |
| 20260504021526 | 48 | 307 | 0.0 | 0.0 | 0.00 | 0.00 | 0.00 | 57 | 1013.4 |
| 20260504021007 | 48 | 307 | 0.0 | 0.0 | 0.00 | 0.00 | 0.00 | 57 | 1013.3 |
| 20260504020508 | 49 | 307 | 0.0 | 0.0 | 0.00 | 0.00 | 0.00 | 56 | 1013.2 |
| 20260504020012 | 49 | 307 | 0.0 | 0.0 | 0.00 | 0.00 | 0.00 | 57 | 1013.2 |
| 20260504015504 | 49 | 307 | 0.0 | 0.0 | 0.00 | 0.00 | 0.00 | 53 | 1013.2 |
| 20260504015007 | 49 | 307 | 0.0 | 0.0 | 0.00 | 0.00 | 0.00 | 56 | 1013.3 |
| 20260504014532 | 49 | 307 | 0.0 | 0.0 | 0.00 | 0.00 | 0.00 | 54 | 1013.2 |
| 20260504014010 | 49 | 307 | 0.0 | 0.0 | 0.00 | 0.00 | 0.00 | 55 | 1013.2 |
| 20260504013507 | 49 | 307 | 0.0 | 0.0 | 0.00 | 0.00 | 0.00 | 54 | 1013.2 |
| 20260504013018 | 49 | 307 | 0.0 | 0.0 | 0.00 | 0.00 | 0.00 | 54 | 1013.1 |
| 20260504012508 | 49 | 307 | 0.0 | 0.0 | 0.00 | 0.00 | 0.00 | 55 | 1013.1 |
| 20260504012010 | 49 | 307 | 0.0 | 0.0 | 0.00 | 0.00 | 0.00 | 55 | 1013.1 |
| 20260504011524 | 49 | 307 | 0.0 | 0.0 | 0.00 | 0.00 | 0.00 | 53 | 1013.0 |
| 20260504011009 | 49 | 307 | 0.0 | 0.0 | 0.00 | 0.00 | 0.00 | 53 | 1013.0 |
| 20260504010514 | 49 | 307 | 0.0 | 0.0 | 0.00 | 0.00 | 0.00 | 54 | 1012.9 |
| 20260504010028 | 50 | 307 | 0.0 | 0.0 | 0.00 | 0.00 | 0.00 | 53 | 1012.8 |
| 20260504005509 | 50 | 307 | 0.0 | 0.0 | 0.00 | 0.00 | 0.00 | 52 | 1012.9 |
| 20260504005004 | 50 | 307 | 0.0 | 0.0 | 0.00 | 0.00 | 0.00 | 50 | 1012.8 |
| 20260504004512 | 50 | 307 | 0.0 | 0.0 | 0.00 | 0.00 | 0.00 | 48 | 1012.7 |
| 20260504004004 | 51 | 307 | 0.0 | 0.0 | 0.00 | 0.00 | 0.00 | 48 | 1012.6 |
| 20260504003507 | 51 | 307 | 0.0 | 0.0 | 0.00 | 0.00 | 0.00 | 50 | 1012.6 |
| 20260504003027 | 51 | 307 | 0.0 | 0.0 | 0.00 | 0.00 | 0.00 | 50 | 1012.5 |
| 20260504002507 | 52 | 307 | 0.0 | 0.0 | 0.00 | 0.00 | 0.00 | 49 | 1012.5 |
| 20260504002008 | 52 | 307 | 0.0 | 0.9 | 0.00 | 0.00 | 0.00 | 45 | 1012.4 |
| 20260504001522 | 52 | 307 | 0.0 | 0.9 | 0.00 | 0.00 | 0.00 | 48 | 1012.5 |
| 20260504001007 | 53 | 307 | 0.0 | 0.9 | 0.00 | 0.00 | 0.00 | 44 | 1012.4 |
| 20260504000507 | 53 | 322 | 0.0 | 0.0 | 0.00 | 0.00 | 0.00 | 44 | 1012.4 |
| 20260504000024 | 54 | 322 | 0.0 | 0.9 | 0.00 | 0.00 | 0.00 | 44 | 1012.4 |
| 20260503235509 | 54 | 322 | 0.0 | 0.9 | 0.00 | 0.00 | 0.00 | 44 | 1012.4 |
| 20260503235010 | 55 | 287 | 0.0 | 0.9 | 0.00 | 0.00 | 0.00 | 44 | 1012.4 |
| 20260503234537 | 55 | 287 | 0.0 | 0.9 | 0.00 | 0.00 | 0.00 | 42 | 1012.3 |
| 20260503234011 | 56 | 296 | 0.0 | 1.7 | 0.00 | 0.00 | 0.00 | 40 | 1012.3 |
| 20260503233504 | 56 | 333 | 0.0 | 2.6 | 0.00 | 0.00 | 0.00 | 38 | 1012.3 |
| 20260503233004 | 57 | 241 | 0.0 | 2.6 | 0.00 | 0.00 | 0.00 | 39 | 1012.3 |
| 20260503232504 | 57 | 246 | 0.0 | 2.6 | 0.00 | 0.00 | 0.00 | 35 | 1012.2 |
| 20260503232004 | 58 | 115 | 0.0 | 3.5 | 0.00 | 0.00 | 0.00 | 38 | 1012.2 |
| 20260503231505 | 58 | 217 | 0.0 | 3.5 | 0.00 | 0.00 | 0.00 | 35 | 1012.2 |
| 20260503231005 | 58 | 105 | 0.0 | 2.6 | 0.00 | 0.00 | 0.00 | 36 | 1012.3 |
| 20260503230503 | 58 | 115 | 0.0 | 3.5 | 0.00 | 0.00 | 0.00 | 36 | 1012.3 |
| 20260503230005 | 58 | 120 | 0.0 | 3.5 | 0.00 | 0.00 | 0.00 | 35 | 1012.2 |
| 20260503225504 | 59 | 167 | 0.9 | 4.3 | 0.00 | 0.00 | 0.00 | 36 | 1012.2 |
| 20260503225005 | 59 | 45 | 0.0 | 5.2 | 0.00 | 0.00 | 0.00 | 34 | 1012.2 |
| 20260503224504 | 59 | 191 | 2.6 | 7.8 | 0.00 | 0.00 | 0.00 | 33 | 1012.1 |
| 20260503224004 | 59 | 50 | 1.7 | 7.8 | 0.00 | 0.00 | 0.00 | 33 | 1012.1 |
| 20260503223503 | 59 | 199 | 1.7 | 6.1 | 0.00 | 0.00 | 0.00 | 34 | 1012.1 |
| 20260503223007 | 59 | 261 | 2.6 | 6.1 | 0.00 | 0.00 | 0.00 | 33 | 1012.2 |
| 20260503222502 | 59 | 243 | 2.6 | 5.2 | 0.00 | 0.00 | 0.00 | 33 | 1012.1 |
| 20260503222006 | 59 | 2 | 1.7 | 7.0 | 0.00 | 0.00 | 0.00 | 36 | 1012.2 |
| 20260503221505 | 59 | 264 | 2.6 | 7.0 | 0.00 | 0.00 | 0.00 | 33 | 1012.1 |
| 20260503221004 | 59 | 297 | 0.9 | 5.2 | 0.00 | 0.00 | 0.00 | 33 | 1012.2 |
| 20260503220506 | 59 | 209 | 0.9 | 5.2 | 0.00 | 0.00 | 0.00 | 34 | 1012.2 |
| 20260503220004 | 59 | 281 | 0.0 | 6.1 | 0.00 | 0.00 | 0.00 | 34 | 1012.2 |
| 20260503215507 | 59 | 263 | 1.7 | 6.1 | 0.00 | 0.00 | 0.00 | 32 | 1012.2 |
| 20260503215004 | 60 | 45 | 3.5 | 6.1 | 0.00 | 0.00 | 0.00 | 31 | 1012.2 |
| 20260503214503 | 60 | 153 | 1.7 | 7.0 | 0.00 | 0.00 | 0.00 | 34 | 1012.1 |
| 20260503214004 | 60 | 44 | 1.7 | 7.0 | 0.00 | 0.00 | 0.00 | 31 | 1012.1 |
| 20260503213505 | 60 | 148 | 1.7 | 6.1 | 0.00 | 0.00 | 0.00 | 32 | 1012.1 |
| 20260503213006 | 61 | 4 | 3.5 | 6.1 | 0.00 | 0.00 | 0.00 | 29 | 1012.0 |
| 20260503212504 | 62 | 276 | 2.6 | 6.1 | 0.00 | 0.00 | 0.00 | 30 | 1012.0 |
| 20260503212004 | 62 | 165 | 0.9 | 5.2 | 0.00 | 0.00 | 0.00 | 34 | 1011.9 |
| 20260503211509 | 62 | 157 | 2.6 | 5.2 | 0.00 | 0.00 | 0.00 | 29 | 1012.0 |
| 20260503211004 | 62 | 237 | 1.7 | 3.5 | 0.00 | 0.00 | 0.00 | 34 | 1011.9 |
| 20260503210504 | 63 | 281 | 0.9 | 4.3 | 0.00 | 0.00 | 0.00 | 30 | 1011.9 |
| 20260503210006 | 62 | 88 | 0.9 | 5.2 | 0.00 | 0.00 | 0.00 | 32 | 1011.9 |
| 20260503205505 | 62 | 281 | 2.6 | 9.6 | 0.00 | 0.00 | 0.00 | 29 | 1011.9 |
| 20260503205005 | 62 | 229 | 0.9 | 9.6 | 0.00 | 0.00 | 0.00 | 30 | 1011.9 |
| 20260503204505 | 63 | 337 | 2.6 | 5.2 | 0.00 | 0.00 | 0.00 | 33 | 1012.0 |
| 20260503204006 | 62 | 235 | 1.7 | 7.8 | 0.00 | 0.00 | 0.00 | 33 | 1011.9 |
| 20260503203508 | 62 | 50 | 4.3 | 7.8 | 0.00 | 0.00 | 0.00 | 31 | 1012.0 |
| 20260503203012 | 62 | 35 | 1.7 | 7.8 | 0.00 | 0.00 | 0.00 | 30 | 1011.9 |
| 20260503202504 | 61 | 64 | 1.7 | 5.2 | 0.00 | 0.00 | 0.00 | 34 | 1011.9 |
| 20260503202005 | 61 | 89 | 1.7 | 5.2 | 0.00 | 0.00 | 0.00 | 33 | 1012.0 |
| 20260503201510 | 61 | 287 | 1.7 | 7.0 | 0.00 | 0.00 | 0.00 | 35 | 1012.1 |
| 20260503201007 | 62 | 43 | 2.6 | 7.0 | 0.00 | 0.00 | 0.00 | 31 | 1012.1 |
| 20260503200503 | 61 | 229 | 1.7 | 6.1 | 0.00 | 0.00 | 0.00 | 33 | 1012.1 |
| 20260503200007 | 61 | 146 | 1.7 | 5.2 | 0.00 | 0.00 | 0.00 | 36 | 1012.0 |
| 20260503195506 | 62 | 31 | 2.6 | 11.3 | 0.00 | 0.00 | 0.00 | 33 | 1012.0 |
| 20260503195006 | 61 | 142 | 0.9 | 11.3 | 0.00 | 0.00 | 0.00 | 31 | 1012.2 |
| 20260503194510 | 61 | 207 | 1.7 | 7.0 | 0.00 | 0.00 | 0.00 | 35 | 1012.4 |
| 20260503194004 | 60 | 227 | 1.7 | 7.8 | 0.00 | 0.00 | 0.00 | 34 | 1012.4 |
| 20260503193504 | 59 | 127 | 2.6 | 7.8 | 0.00 | 0.00 | 0.00 | 32 | 1012.4 |
| 20260503193010 | 59 | 135 | 1.7 | 7.8 | 0.00 | 0.00 | 0.00 | 32 | 1012.5 |
| 20260503192504 | 60 | 208 | 1.7 | 9.6 | 0.00 | 0.00 | 0.00 | 31 | 1012.5 |
| 20260503192008 | 60 | 261 | 3.5 | 13.0 | 0.00 | 0.00 | 0.00 | 35 | 1012.7 |
| 20260503191506 | 61 | 245 | 2.6 | 13.0 | 0.00 | 0.00 | 0.00 | 33 | 1012.5 |
| 20260503191010 | 60 | 208 | 1.7 | 6.1 | 0.00 | 0.00 | 0.00 | 33 | 1012.8 |
| 20260503190505 | 59 | 46 | 1.7 | 9.6 | 0.00 | 0.00 | 0.00 | 32 | 1012.8 |
| 20260503190008 | 59 | 33 | 5.2 | 9.6 | 0.00 | 0.00 | 0.00 | 30 | 1012.8 |
| 20260503185504 | 60 | 20 | 2.6 | 9.6 | 0.00 | 0.00 | 0.00 | 33 | 1012.8 |
| 20260503185007 | 59 | 94 | 0.9 | 8.7 | 0.00 | 0.00 | 0.00 | 35 | 1012.9 |
| 20260503184529 | 60 | 243 | 3.5 | 8.7 | 0.00 | 0.00 | 0.00 | 30 | 1013.1 |
| 20260503184008 | 60 | 85 | 1.7 | 5.2 | 0.00 | 0.00 | 0.00 | 31 | 1012.9 |
| 20260503183505 | 59 | 345 | 0.9 | 7.0 | 0.00 | 0.00 | 0.00 | 32 | 1013.0 |
| 20260503183009 | 60 | 269 | 1.7 | 7.0 | 0.00 | 0.00 | 0.00 | 32 | 1013.1 |
| 20260503182505 | 60 | 304 | 1.7 | 4.3 | 0.00 | 0.00 | 0.00 | 34 | 1013.1 |
| 20260503182009 | 59 | 263 | 2.6 | 4.3 | 0.00 | 0.00 | 0.00 | 31 | 1013.2 |
| 20260503181510 | 60 | 70 | 3.5 | 4.3 | 0.00 | 0.00 | 0.00 | 34 | 1013.3 |
| 20260503181006 | 59 | 203 | 1.7 | 3.5 | 0.00 | 0.00 | 0.00 | 32 | 1013.3 |
| 20260503180508 | 59 | 112 | 1.7 | 3.5 | 0.00 | 0.00 | 0.00 | 31 | 1013.4 |
| 20260503180018 | 59 | 153 | 0.9 | 8.7 | 0.00 | 0.00 | 0.00 | 36 | 1013.4 |
| 20260503175507 | 59 | 191 | 5.2 | 8.7 | 0.00 | 0.00 | 0.00 | 36 | 1013.5 |
| 20260503175008 | 60 | 212 | 1.7 | 7.0 | 0.00 | 0.00 | 0.00 | 30 | 1013.5 |
| 20260503174512 | 60 | 231 | 0.9 | 7.8 | 0.00 | 0.00 | 0.00 | 32 | 1013.5 |
| 20260503174008 | 59 | 233 | 0.0 | 7.8 | 0.00 | 0.00 | 0.00 | 38 | 1013.5 |
| 20260503173507 | 58 | 153 | 2.6 | 7.8 | 0.00 | 0.00 | 0.00 | 35 | 1013.6 |
| 20260503173014 | 58 | 144 | 2.6 | 7.8 | 0.00 | 0.00 | 0.00 | 35 | 1013.6 |
| 20260503172508 | 57 | 169 | 2.6 | 12.2 | 0.00 | 0.00 | 0.00 | 32 | 1013.7 |
| 20260503172007 | 57 | 124 | 2.6 | 12.2 | 0.00 | 0.00 | 0.00 | 34 | 1013.7 |
| 20260503171515 | 57 | 338 | 0.9 | 11.3 | 0.00 | 0.00 | 0.00 | 33 | 1013.9 |
| 20260503171006 | 57 | 58 | 2.6 | 14.8 | 0.00 | 0.00 | 0.00 | 33 | 1014.0 |
| 20260503170507 | 56 | 36 | 5.2 | 14.8 | 0.00 | 0.00 | 0.00 | 33 | 1014.1 |
| 20260503151008 | 52 | 250 | 3.5 | 9.6 | 0.00 | 0.00 | 0.00 | 36 | 1015.1 |
| 20260503150506 | 52 | 17 | 2.6 | 6.1 | 0.00 | 0.00 | 0.00 | 41 | 1015.1 |
| 20260503131005 | 47 | 91 | 0.9 | 7.0 | 0.00 | 0.00 | 0.00 | 50 | 1015.7 |
| 20260503130507 | 46 | 49 | 2.6 | 4.3 | 0.00 | 0.00 | 0.00 | 51 | 1015.8 |
| 20260503110509 | 39 | 165 | 0.0 | 0.9 | 0.00 | 0.00 | 0.00 | 69 | 1015.5 |
| 20260503090510 | 37 | 295 | 0.0 | 0.9 | 0.00 | 0.00 | 0.00 | 75 | 1014.6 |
| 20260503081513 | 37 | 277 | 0.9 | 3.5 | 0.00 | 0.00 | 0.00 | 75 | 1014.2 |
| 20260503081007 | 37 | 244 | 0.0 | 1.7 | 0.00 | 0.00 | 0.00 | 76 | 1014.2 |
| 20260503080507 | 37 | 281 | 0.0 | 0.9 | 0.00 | 0.00 | 0.00 | 77 | 1014.2 |
| 20260503072507 | 38 | 270 | 0.0 | 0.0 | 0.00 | 0.00 | 0.00 | 74 | 1014.0 |
| 20260503072010 | 38 | 270 | 0.0 | 0.0 | 0.00 | 0.00 | 0.00 | 74 | 1014.0 |
| 20260503071529 | 38 | 270 | 0.0 | 0.9 | 0.00 | 0.00 | 0.00 | 74 | 1014.0 |
| 20260503071007 | 38 | 270 | 0.0 | 0.9 | 0.00 | 0.00 | 0.00 | 74 | 1014.0 |
| 20260503070512 | 39 | 270 | 0.0 | 0.9 | 0.00 | 0.00 | 0.00 | 73 | 1013.9 |
| 20260503055006 | 42 | 79 | 0.0 | 0.9 | 0.00 | 0.03 | 0.00 | 69 | 1014.2 |
| 20260503054524 | 42 | 79 | 0.0 | 0.9 | 0.00 | 0.03 | 0.00 | 70 | 1014.2 |
| 20260503054006 | 42 | 79 | 0.0 | 0.9 | 0.00 | 0.04 | 0.00 | 69 | 1014.2 |